Location: Helsinki
(60.1699°N, 24.9384°E)
Time: 23:58:16
(UTC+02:00)

A-11 Canister half - Pass Details

Date: 28 October 2020
Orbit: 1516 x 1684 km, 47.2° (Epoch: 26 November)

Event Time Altitude Azimuth Distance (km) Brightness Sun altitude
Rises 03:11:08 0° 278° (W) 4,863 - -32.0°
Reaches altitude 10° 03:15:32 10° 262° (W) 3,843 - -31.5°
Maximum altitude 03:21:30 18° 223° (SW) 3,176 - -30.9°
Drops below altitude 10° 03:27:21 10° 184° (S) 3,751 - -30.3°
Exits shadow 03:29:53 - 173° (S) 4,287 11.1 -30.0°
Sets 03:31:36 0° 167° (SSE) 4,704 11.4 -29.8°
